Total_Precipitation_Accumulation
0.00 0.00 0.00 0.00 0.00 0.00 0.00 0.00 0.00 0.00 0.00 0.00 0.00 0.00 0.00 0.01 0.01 0.01 0.02 0.02 0.03 0.03 0.03 0.03 0.02 0.01 0.02 0.05 0.11 0.23 0.33 0.43 0.51 0.61 0.55 0.52 0.51 0.54 0.52 0.50 0.48 0.45 0.48 0.56
0.00 0.00 0.00 0.00 0.00 0.00 0.00 0.00 0.00 0.00 0.00 0.00 0.00 0.00 0.00 0.00 0.01 0.01 0.02 0.03 0.05 0.06 0.05 0.04 0.04 0.03 0.04 0.08 0.11 0.16 0.22 0.29 0.39 0.53 0.59 0.63 0.76 0.87 0.89 0.84 0.72 0.61 0.62 0.65
0.00 0.00 0.00 0.00 0.00 0.00 0.00 0.00 0.00 0.00 0.00 0.00 0.00 0.00 0.00 0.01 0.01 0.01 0.01 0.03 0.06 0.08 0.06 0.04 0.04 0.04 0.05 0.11 0.17 0.16 0.16 0.19 0.26 0.28 0.33 0.51 0.77 0.96 1.06 1.11 1.02 0.92 0.89 0.87
0.00 0.00 0.00 0.00 0.00 0.00 0.00 0.00 0.00 0.00 0.00 0.00 0.00 0.00 0.00 0.00 0.01 0.02 0.03 0.05 0.07 0.06 0.05 0.05 0.05 0.05 0.06 0.05 0.04 0.04 0.05 0.09 0.14 0.15 0.18 0.27 0.51 0.82 1.07 1.24 1.26 1.23 1.16 1.06
0.00 0.00 0.00 0.00 0.00 0.00 0.00 0.00 0.00 0.00 0.00 0.00 0.00 0.00 0.00 0.02 0.03 0.04 0.06 0.08 0.09 0.07 0.08 0.09 0.07 0.05 0.04 0.03 0.02 0.02 0.03 0.05 0.07 0.08 0.11 0.11 0.19 0.29 0.36 0.46 0.57 0.68 0.75 0.76
0.00 0.00 0.00 0.00 0.00 0.00 0.00 0.00 0.00 0.00 0.00 0.00 0.01 0.01 0.01 0.03 0.03 0.02 0.03 0.06 0.08 0.09 0.09 0.08 0.07 0.05 0.03 0.03 0.02 0.02 0.03 0.05 0.04 0.04 0.05 0.07 0.13 0.22 0.28 0.30 0.32 0.34 0.37 0.39
0.00 0.01 0.01 0.01 0.00 0.00 0.00 0.00 0.00 0.00 0.00 0.01 0.02 0.02 0.02 0.01 0.02 0.04 0.05 0.05 0.06 0.06 0.07 0.07 0.06 0.05 0.04 0.03 0.03 0.03 0.02 0.03 0.02 0.03 0.05 0.09 0.15 0.20 0.20 0.20 0.21 0.21 0.22 0.24
0.00 0.01 0.02 0.01 0.00 0.00 0.00 0.00 0.00 0.00 0.00 0.00 0.00 0.01 0.01 0.01 0.02 0.03 0.02 0.02 0.03 0.03 0.03 0.03 0.03 0.03 0.03 0.03 0.03 0.02 0.02 0.02 0.04 0.08 0.14 0.25 0.40 0.46 0.42 0.34 0.27 0.25 0.27 0.29
0.00 0.00 0.00 0.00 0.00 0.00 0.00 0.00 0.00 0.00 0.00 0.00 0.00 0.00 0.01 0.01 0.01 0.01 0.01 0.01 0.01 0.01 0.02 0.02 0.02 0.02 0.02 0.01 0.02 0.02 0.02 0.05 0.11 0.18 0.24 0.29 0.30 0.35 0.33 0.30 0.29 0.29 0.33 0.33
0.00 0.00 0.00 0.00 0.00 0.00 0.00 0.00 0.00 0.00 0.01 0.00 0.00 0.00 0.01 0.01 0.01 0.01 0.01 0.01 0.01 0.01 0.01 0.01 0.01 0.01 0.01 0.02 0.03 0.05 0.05 0.12 0.25 0.38 0.44 0.34 0.25 0.20 0.25 0.32 0.35 0.35 0.37 0.38
0.00 0.00 0.00 0.00 0.00 0.00 0.01 0.00 0.00 0.01 0.01 0.01 0.01 0.00 0.01 0.01 0.01 0.01 0.01 0.01 0.01 0.01 0.01 0.01 0.01 0.01 0.01 0.03 0.06 0.17 0.22 0.30 0.41 0.56 0.65 0.54 0.36 0.28 0.27 0.28 0.26 0.26 0.32 0.41
0.00 0.00 0.00 0.00 0.00 0.01 0.01 0.01 0.01 0.01 0.01 0.01 0.01 0.00 0.00 0.00 0.00 0.00 0.00 0.00 0.00 0.00 0.00 0.00 0.00 0.01 0.01 0.02 0.13 0.37 0.62 0.88 0.94 1.02 1.10 0.95 0.57 0.35 0.27 0.21 0.18 0.23 0.32 0.41
0.00 0.00 0.00 0.00 0.01 0.01 0.00 0.00 0.00 0.01 0.01 0.01 0.02 0.01 0.00 0.00 0.00 0.00 0.00 0.00 0.00 0.00 0.00 0.00 0.00 0.01 0.01 0.02 0.08 0.23 0.31 0.55 0.76 0.92 1.04 0.83 0.44 0.24 0.17 0.14 0.18 0.30 0.39 0.41
0.00 0.00 0.00 0.00 0.00 0.00 0.00 0.00 0.00 0.00 0.01 0.02 0.03 0.03 0.01 0.00 0.00 0.00 0.00 0.00 0.00 0.01 0.01 0.01 0.01 0.01 0.01 0.02 0.03 0.14 0.19 0.20 0.28 0.52 0.67 0.53 0.29 0.18 0.13 0.12 0.17 0.22 0.23 0.24
0.00 0.00 0.00 0.00 0.00 0.00 0.00 0.00 0.00 0.00 0.01 0.05 0.04 0.02 0.01 0.01 0.01 0.01 0.01 0.01 0.01 0.01 0.01 0.01 0.01 0.01 0.01 0.02 0.04 0.10 0.15 0.15 0.22 0.42 0.53 0.41 0.24 0.15 0.08 0.05 0.06 0.09 0.15 0.21
0.00 0.00 0.00 0.00 0.01 0.00 0.00 0.00 0.01 0.01 0.01 0.01 0.01 0.02 0.01 0.02 0.02 0.02 0.02 0.02 0.02 0.02 0.02 0.02 0.02 0.01 0.02 0.03 0.03 0.04 0.07 0.12 0.20 0.35 0.47 0.41 0.29 0.16 0.07 0.04 0.03 0.07 0.11 0.14
0.00 0.00 0.00 0.01 0.02 0.01 0.01 0.01 0.01 0.01 0.02 0.03 0.04 0.04 0.03 0.04 0.04 0.04 0.05 0.04 0.03 0.02 0.02 0.01 0.01 0.01 0.01 0.03 0.04 0.05 0.06 0.09 0.20 0.34 0.42 0.42 0.35 0.23 0.15 0.07 0.06 0.07 0.08 0.10
0.00 0.01 0.01 0.01 0.01 0.01 0.01 0.01 0.01 0.02 0.03 0.03 0.04 0.05 0.05 0.06 0.05 0.05 0.06 0.04 0.02 0.01 0.01 0.01 0.01 0.01 0.01 0.01 0.03 0.04 0.06 0.08 0.16 0.27 0.38 0.43 0.38 0.32 0.28 0.16 0.11 0.09 0.10 0.13
0.00 0.01 0.02 0.01 0.01 0.01 0.01 0.02 0.03 0.03 0.04 0.05 0.06 0.06 0.06 0.05 0.04 0.04 0.03 0.02 0.01 0.01 0.01 0.01 0.01 0.02 0.02 0.02 0.02 0.03 0.04 0.07 0.13 0.21 0.34 0.41 0.39 0.34 0.30 0.24 0.18 0.16 0.19 0.18
0.00 0.01 0.01 0.01 0.02 0.03 0.03 0.04 0.07 0.07 0.12 0.09 0.06 0.04 0.03 0.03 0.05 0.02 0.01 0.01 0.01 0.01 0.01 0.01 0.01 0.01 0.02 0.02 0.03 0.04 0.05 0.10 0.16 0.20 0.29 0.41 0.46 0.46 0.42 0.35 0.26 0.23 0.27 0.26
0.00 0.01 0.01 0.03 0.06 0.05 0.03 0.04 0.05 0.10 0.14 0.04 0.02 0.02 0.03 0.06 0.09 0.05 0.02 0.01 0.01 0.01 0.01 0.02 0.02 0.02 0.03 0.04 0.05 0.08 0.10 0.15 0.18 0.20 0.24 0.34 0.48 0.51 0.51 0.49 0.41 0.34 0.34 0.35
0.00 0.01 0.02 0.04 0.08 0.10 0.02 0.02 0.04 0.06 0.04 0.04 0.05 0.05 0.06 0.05 0.03 0.02 0.01 0.01 0.01 0.01 0.01 0.02 0.03 0.03 0.04 0.06 0.11 0.16 0.21 0.22 0.22 0.24 0.29 0.37 0.45 0.39 0.41 0.52 0.53 0.49 0.48 0.49
0.00 0.02 0.05 0.05 0.07 0.03 0.01 0.02 0.03 0.04 0.07 0.07 0.07 0.05 0.03 0.03 0.02 0.02 0.02 0.02 0.02 0.02 0.03 0.04 0.05 0.07 0.09 0.15 0.25 0.33 0.34 0.32 0.30 0.30 0.34 0.39 0.45 0.50 0.56 0.60 0.61 0.60 0.58 0.60
0.00 0.01 0.03 0.07 0.04 0.02 0.02 0.03 0.03 0.03 0.04 0.03 0.02 0.02 0.02 0.03 0.04 0.04 0.04 0.03 0.03 0.02 0.03 0.04 0.08 0.14 0.21 0.30 0.41 0.46 0.44 0.40 0.35 0.33 0.34 0.38 0.45 0.51 0.57 0.65 0.70 0.71 0.67 0.64
0.01 0.02 0.03 0.07 0.05 0.03 0.04 0.04 0.02 0.01 0.01 0.01 0.01 0.01 0.02 0.04 0.06 0.06 0.06 0.05 0.04 0.03 0.04 0.07 0.11 0.18 0.26 0.39 0.49 0.48 0.46 0.45 0.42 0.39 0.38 0.37 0.41 0.50 0.57 0.63 0.70 0.79 0.80 0.71
0.01 0.03 0.05 0.07 0.06 0.07 0.07 0.03 0.02 0.02 0.02 0.03 0.03 0.03 0.03 0.05 0.06 0.06 0.06 0.05 0.05 0.04 0.05 0.09 0.15 0.19 0.23 0.34 0.48 0.51 0.53 0.53 0.51 0.48 0.43 0.39 0.40 0.48 0.56 0.64 0.62 0.60 0.67 0.58